| time (UTC) | temp F | wind direction | speed MPH | gust MPH | rain 1hr in | rain 24hr in | rain mn in | humidity % | barometer mb |
| 20260507033027 | 58 | 360 | 5.0 | 11.0 | 0.00 | 0.01 | 0.01 | 77 | 1017.3 |
| 20260507031524 | 58 | 24 | 5.0 | 10.0 | 0.00 | 0.01 | 0.01 | 78 | 1017.0 |
| 20260507030010 | 58 | 24 | 6.0 | 12.0 | 0.00 | 0.01 | 0.01 | 78 | 1016.7 |
| 20260507024512 | 58 | 22 | 4.0 | 13.0 | 0.00 | 0.01 | 0.01 | 78 | 1016.2 |
| 20260507023014 | 58 | 355 | 4.0 | 12.0 | 0.00 | 0.01 | 0.01 | 78 | 1016.0 |
| 20260507021504 | 58 | 5 | 5.0 | 11.0 | 0.00 | 0.01 | 0.01 | 78 | 1015.9 |
| 20260507020010 | 58 | 42 | 5.0 | 12.0 | 0.00 | 0.01 | 0.01 | 78 | 1015.6 |
| 20260507014512 | 58 | 360 | 5.0 | 10.0 | 0.00 | 0.01 | 0.01 | 78 | 1015.3 |
| 20260507013018 | 58 | 55 | 3.0 | 10.0 | 0.00 | 0.01 | 0.01 | 79 | 1014.9 |
| 20260507011529 | 58 | 360 | 2.0 | 9.0 | 0.01 | 0.01 | 0.01 | 79 | 1014.4 |
| 20260507010020 | 58 | 20 | 3.0 | 10.0 | 0.01 | 0.01 | 0.01 | 79 | 1014.4 |
| 20260507004507 | 58 | 42 | 2.0 | 9.0 | 0.01 | 0.01 | 0.01 | 78 | 1014.5 |
| 20260507003011 | 59 | 51 | 3.0 | 12.0 | 0.01 | 0.01 | 0.01 | 77 | 1014.3 |
| 20260507001525 | 60 | 18 | 5.0 | 9.0 | 0.00 | 0.00 | 0.00 | 75 | 1014.2 |
| 20260507000023 | 60 | 54 | 5.0 | 11.0 | 0.00 | 0.00 | 0.00 | 74 | 1014.0 |
| 20260506234520 | 61 | 46 | 5.0 | 9.0 | 0.00 | 0.00 | 0.00 | 74 | 1013.6 |
| 20260506233008 | 61 | 348 | 3.0 | 9.0 | 0.00 | 0.00 | 0.00 | 73 | 1013.9 |
| 20260506231511 | 61 | 328 | 4.0 | 8.0 | 0.00 | 0.00 | 0.00 | 74 | 1013.7 |
| 20260506230021 | 60 | 324 | 5.0 | 10.0 | 0.00 | 0.00 | 0.00 | 73 | 1013.8 |
| 20260506224520 | 60 | 315 | 4.0 | 11.0 | 0.00 | 0.00 | 0.00 | 73 | 1013.7 |
| 20260506223021 | 60 | 346 | 5.0 | 9.0 | 0.00 | 0.00 | 0.00 | 73 | 1013.3 |
| 20260506221509 | 60 | 328 | 4.0 | 10.0 | 0.00 | 0.00 | 0.00 | 73 | 1013.3 |
| 20260506220016 | 60 | 5 | 3.0 | 10.0 | 0.00 | 0.00 | 0.00 | 73 | 1013.2 |
| 20260506214521 | 60 | 19 | 6.0 | 11.0 | 0.00 | 0.00 | 0.00 | 73 | 1013.2 |
| 20260506213022 | 60 | 355 | 7.0 | 10.0 | 0.00 | 0.00 | 0.00 | 73 | 1013.3 |
| 20260506211524 | 59 | 340 | 5.0 | 11.0 | 0.00 | 0.00 | 0.00 | 74 | 1013.4 |
| 20260506210018 | 59 | 360 | 8.0 | 12.0 | 0.00 | 0.00 | 0.00 | 74 | 1013.2 |
| 20260506204503 | 59 | 5 | 7.0 | 12.0 | 0.00 | 0.00 | 0.00 | 74 | 1013.7 |
| 20260506203005 | 58 | 307 | 4.0 | 10.0 | 0.00 | 0.00 | 0.00 | 76 | 1013.8 |
| 20260506201509 | 57 | 351 | 3.0 | 7.0 | 0.00 | 0.00 | 0.00 | 78 | 1014.1 |
| 20260506200015 | 57 | 328 | 4.0 | 10.0 | 0.00 | 0.00 | 0.00 | 78 | 1014.4 |
| 20260506194516 | 56 | 320 | 4.0 | 11.0 | 0.00 | 0.00 | 0.00 | 78 | 1014.3 |
| 20260506193020 | 56 | 319 | 4.0 | 12.0 | 0.00 | 0.00 | 0.00 | 77 | 1014.4 |
| 20260506191506 | 57 | 346 | 7.0 | 12.0 | 0.00 | 0.00 | 0.00 | 76 | 1014.2 |
| 20260506190008 | 57 | 315 | 6.0 | 11.0 | 0.00 | 0.00 | 0.00 | 76 | 1014.5 |
| 20260506184514 | 57 | 319 | 4.0 | 12.0 | 0.00 | 0.00 | 0.00 | 76 | 1014.4 |
| 20260506183014 | 58 | 33 | 4.0 | 11.0 | 0.00 | 0.00 | 0.00 | 75 | 1014.0 |
| 20260506181524 | 57 | 5 | 3.0 | 6.0 | 0.00 | 0.00 | 0.00 | 76 | 1014.2 |
| 20260506180005 | 57 | 42 | 2.0 | 10.0 | 0.00 | 0.00 | 0.00 | 76 | 1014.3 |
| 20260506174507 | 58 | 18 | 5.0 | 17.0 | 0.00 | 0.00 | 0.00 | 75 | 1012.7 |
| 20260506173018 | 57 | 347 | 8.0 | 15.0 | 0.00 | 0.00 | 0.00 | 76 | 1012.3 |
| 20260506171520 | 57 | 44 | 5.0 | 11.0 | 0.00 | 0.00 | 0.00 | 77 | 1013.5 |
| 20260506170028 | 57 | 24 | 5.0 | 9.0 | 0.00 | 0.00 | 0.00 | 77 | 1014.0 |
| 20260506164509 | 56 | 5 | 1.0 | 9.0 | 0.00 | 0.00 | 0.00 | 77 | 1014.3 |
| 20260506163021 | 56 | 19 | 5.0 | 18.0 | 0.00 | 0.00 | 0.00 | 78 | 1013.7 |
| 20260506161516 | 55 | 22 | 7.0 | 14.0 | 0.00 | 0.00 | 0.00 | 79 | 1013.6 |
| 20260506160021 | 54 | 9 | 7.0 | 12.0 | 0.00 | 0.00 | 0.00 | 79 | 1013.9 |
| 20260506154527 | 54 | 313 | 4.0 | 11.0 | 0.00 | 0.00 | 0.00 | 79 | 1014.5 |
| 20260506153009 | 54 | 31 | 3.0 | 14.0 | 0.00 | 0.00 | 0.00 | 80 | 1014.4 |
| 20260506151512 | 54 | 332 | 5.0 | 12.0 | 0.00 | 0.00 | 0.00 | 79 | 1015.0 |
| 20260506150018 | 54 | 330 | 6.0 | 14.0 | 0.00 | 0.00 | 0.00 | 78 | 1015.6 |
| 20260506144529 | 54 | 336 | 8.0 | 16.0 | 0.00 | 0.00 | 0.00 | 77 | 1014.5 |
| 20260506143027 | 54 | 30 | 5.0 | 13.0 | 0.00 | 0.00 | 0.00 | 77 | 1014.3 |
| 20260506141530 | 55 | 347 | 8.0 | 14.0 | 0.00 | 0.00 | 0.00 | 77 | 1013.7 |
| 20260506140015 | 55 | 325 | 7.0 | 11.0 | 0.00 | 0.00 | 0.00 | 76 | 1013.5 |
| 20260506134521 | 55 | 334 | 7.0 | 15.0 | 0.00 | 0.00 | 0.00 | 76 | 1013.5 |
| 20260506133021 | 55 | 352 | 8.0 | 12.0 | 0.00 | 0.00 | 0.00 | 76 | 1013.0 |
| 20260506131532 | 55 | 352 | 7.0 | 17.0 | 0.00 | 0.00 | 0.00 | 76 | 1012.8 |
| 20260506130030 | 56 | 27 | 8.0 | 15.0 | 0.00 | 0.00 | 0.00 | 75 | 1012.9 |
| 20260506124515 | 56 | 355 | 8.0 | 14.0 | 0.00 | 0.00 | 0.00 | 76 | 1012.6 |
| 20260506123022 | 56 | 325 | 6.0 | 15.0 | 0.00 | 0.00 | 0.00 | 76 | 1012.3 |
| 20260506121527 | 56 | 360 | 7.0 | 14.0 | 0.00 | 0.00 | 0.00 | 76 | 1012.1 |
| 20260506120028 | 56 | 331 | 7.0 | 13.0 | 0.00 | 0.00 | 0.00 | 75 | 1012.2 |
| 20260506120018 | 56 | 17 | 7.0 | 13.0 | 0.00 | 0.00 | 0.00 | 75 | 1012.2 |
| 20260506114517 | 57 | 344 | 5.0 | 14.0 | 0.00 | 0.00 | 0.00 | 74 | 1011.8 |
| 20260506113022 | 57 | 350 | 6.0 | 15.0 | 0.00 | 0.00 | 0.00 | 75 | 1011.7 |
| 20260506111503 | 57 | 334 | 4.0 | 12.0 | 0.00 | 0.00 | 0.00 | 76 | 1011.2 |
| 20260506110007 | 57 | 5 | 5.0 | 11.0 | 0.00 | 0.00 | 0.00 | 78 | 1011.1 |
| 20260506104513 | 57 | 355 | 3.0 | 9.0 | 0.00 | 0.00 | 0.00 | 79 | 1010.9 |
| 20260506103025 | 57 | 322 | 6.0 | 13.0 | 0.00 | 0.00 | 0.00 | 79 | 1010.6 |
| 20260506101539 | 57 | 349 | 9.0 | 14.0 | 0.00 | 0.00 | 0.00 | 79 | 1010.5 |
| 20260506100026 | 58 | 346 | 6.0 | 14.0 | 0.00 | 0.00 | 0.00 | 79 | 1010.1 |
| 20260506094514 | 58 | 321 | 8.0 | 13.0 | 0.00 | 0.00 | 0.00 | 79 | 1010.1 |
| 20260506093017 | 60 | 344 | 5.0 | 12.0 | 0.00 | 0.00 | 0.00 | 78 | 1010.0 |
| 20260506091520 | 61 | 330 | 4.0 | 10.0 | 0.00 | 0.00 | 0.00 | 76 | 1009.8 |
| 20260506090026 | 62 | 339 | 4.0 | 9.0 | 0.00 | 0.00 | 0.00 | 75 | 1009.7 |
| 20260506084527 | 62 | 343 | 3.0 | 8.0 | 0.00 | 0.00 | 0.00 | 76 | 1009.4 |
| 20260506083010 | 62 | 355 | 2.0 | 8.0 | 0.00 | 0.00 | 0.00 | 76 | 1009.3 |
| 20260506081515 | 62 | 17 | 2.0 | 8.0 | 0.00 | 0.00 | 0.00 | 76 | 1009.1 |
| 20260506073038 | 63 | 343 | 3.0 | 9.0 | 0.00 | 0.00 | 0.00 | 76 | 1009.3 |
| 20260506071514 | 63 | 5 | 4.0 | 9.0 | 0.00 | 0.00 | 0.00 | 76 | 1009.4 |
| 20260506061528 | 65 | 360 | 5.0 | 9.0 | 0.00 | 0.00 | 0.00 | 76 | 1009.2 |
| 20260506044545 | 70 | 346 | 6.0 | 14.0 | 0.00 | 0.00 | 0.00 | 73 | 1008.9 |
| 20260506043024 | 70 | 334 | 8.0 | 14.0 | 0.00 | 0.00 | 0.00 | 73 | 1008.9 |
| 20260506041504 | 71 | 325 | 5.0 | 12.0 | 0.00 | 0.00 | 0.00 | 72 | 1008.7 |
| 20260506040010 | 71 | 24 | 7.0 | 14.0 | 0.00 | 0.00 | 0.00 | 72 | 1008.5 |
| 20260506034532 | 72 | 351 | 3.0 | 10.0 | 0.00 | 0.00 | 0.00 | 71 | 1008.1 |